Year,Month,Day,Hour,Minute,Value (Times are PST for windgust in km/hr)
2019,09,28,00,00,6.40
2019,09,28,00,01,6.40
2019,09,28,00,02,6.40
2019,09,28,00,03,6.40
2019,09,28,00,04,6.40
2019,09,28,00,05,6.40
2019,09,28,00,06,6.40
2019,09,28,00,07,6.40
2019,09,28,00,08,4.80
2019,09,28,00,09,4.80
2019,09,28,00,10,6.40
2019,09,28,00,11,6.40
2019,09,28,00,12,3.20
2019,09,28,00,13,3.20
2019,09,28,00,14,4.80
2019,09,28,00,15,4.80
2019,09,28,00,16,4.80
2019,09,28,00,17,4.80
2019,09,28,00,18,3.20
2019,09,28,00,19,3.20
2019,09,28,00,20,3.20
2019,09,28,00,21,6.40
2019,09,28,00,22,4.80
2019,09,28,00,23,4.80
2019,09,28,00,24,4.80
2019,09,28,00,25,4.80
2019,09,28,00,26,4.80
2019,09,28,00,27,4.80
2019,09,28,00,28,6.40
2019,09,28,00,29,6.40
2019,09,28,00,30,4.80
2019,09,28,00,31,4.80
2019,09,28,00,32,4.80
2019,09,28,00,33,8.10
2019,09,28,00,34,6.40
2019,09,28,00,35,4.80
2019,09,28,00,36,4.80
2019,09,28,00,37,6.40
2019,09,28,00,38,6.40
2019,09,28,00,39,4.80
2019,09,28,00,40,6.40
2019,09,28,00,41,6.40
2019,09,28,00,42,6.40
2019,09,28,00,43,4.80
2019,09,28,00,44,6.40
2019,09,28,00,45,4.80
2019,09,28,00,46,8.10
2019,09,28,00,47,8.10
2019,09,28,00,48,12.90
2019,09,28,00,49,8.10
2019,09,28,00,50,8.10
2019,09,28,00,51,6.40
2019,09,28,00,52,4.80
2019,09,28,00,53,6.40
2019,09,28,00,54,6.40
2019,09,28,00,55,8.10
2019,09,28,00,56,6.40
2019,09,28,00,57,4.80
2019,09,28,00,58,4.80
2019,09,28,00,59,4.80
2019,09,28,01,00,6.40
2019,09,28,01,01,6.40
2019,09,28,01,02,6.40
2019,09,28,01,03,8.10
2019,09,28,01,04,9.60
2019,09,28,01,05,4.80
2019,09,28,01,06,6.40
2019,09,28,01,07,4.80
2019,09,28,01,08,9.60
2019,09,28,01,09,6.40
2019,09,28,01,10,3.20
2019,09,28,01,11,3.20
2019,09,28,01,12,3.20
2019,09,28,01,13,4.80
2019,09,28,01,14,3.20
2019,09,28,01,15,3.20
2019,09,28,01,16,1.60
2019,09,28,01,17,1.60
2019,09,28,01,18,1.60
2019,09,28,01,19,1.60
2019,09,28,01,20,1.60
2019,09,28,01,21,1.60
2019,09,28,01,22,3.20
2019,09,28,01,23,3.20
2019,09,28,01,24,3.20
2019,09,28,01,25,3.20
2019,09,28,01,26,1.60
2019,09,28,01,27,1.60
2019,09,28,01,28,1.60
2019,09,28,01,29,3.20
2019,09,28,01,30,3.20
2019,09,28,01,31,3.20
2019,09,28,01,32,4.80
2019,09,28,01,33,4.80
2019,09,28,01,34,3.20
2019,09,28,01,35,3.20
2019,09,28,01,36,3.20
2019,09,28,01,37,3.20
2019,09,28,01,38,3.20
2019,09,28,01,39,3.20
2019,09,28,01,40,3.20
2019,09,28,01,41,3.20
2019,09,28,01,42,3.20
2019,09,28,01,43,3.20
2019,09,28,01,44,3.20
2019,09,28,01,45,1.60
2019,09,28,01,46,3.20
2019,09,28,01,47,3.20
2019,09,28,01,48,4.80
2019,09,28,01,49,3.20
2019,09,28,01,50,4.80
2019,09,28,01,51,3.20
2019,09,28,01,52,3.20
2019,09,28,01,53,4.80
2019,09,28,01,54,4.80
2019,09,28,01,55,4.80
2019,09,28,01,56,4.80
2019,09,28,01,57,3.20
2019,09,28,01,58,3.20
2019,09,28,02,00,1.60
2019,09,28,02,01,1.60
2019,09,28,02,02,1.60
2019,09,28,02,03,3.20
2019,09,28,02,04,1.60
2019,09,28,02,05,1.60
2019,09,28,02,06,3.20
2019,09,28,02,07,3.20
2019,09,28,02,08,1.60
2019,09,28,02,09,1.60
2019,09,28,02,10,1.60
2019,09,28,02,11,3.20
2019,09,28,02,12,3.20
2019,09,28,02,13,3.20
2019,09,28,02,14,1.60
2019,09,28,02,15,3.20
2019,09,28,02,16,3.20
2019,09,28,02,17,4.80
2019,09,28,02,18,4.80
2019,09,28,02,19,4.80
2019,09,28,02,20,4.80
2019,09,28,02,21,3.20
2019,09,28,02,22,1.60
2019,09,28,02,23,1.60
2019,09,28,02,24,1.60
2019,09,28,02,25,1.60
2019,09,28,02,26,1.60
2019,09,28,02,27,1.60
2019,09,28,02,28,1.60
2019,09,28,02,29,1.60
2019,09,28,02,30,1.60
2019,09,28,02,32,1.60
2019,09,28,02,33,1.60
2019,09,28,02,34,1.60
2019,09,28,02,35,1.60
2019,09,28,02,36,1.60
2019,09,28,02,38,1.60
2019,09,28,02,46,1.60
2019,09,28,02,47,1.60
2019,09,28,02,48,3.20
2019,09,28,02,49,3.20
2019,09,28,02,50,1.60
2019,09,28,03,23,1.60
2019,09,28,03,24,1.60
2019,09,28,03,25,1.60
2019,09,28,03,26,3.20
2019,09,28,03,27,3.20
2019,09,28,03,28,1.60
2019,09,28,03,29,4.80
2019,09,28,03,30,4.80
2019,09,28,03,31,6.40
2019,09,28,03,32,4.80
2019,09,28,03,33,6.40
2019,09,28,03,34,4.80
2019,09,28,03,35,6.40
2019,09,28,03,36,6.40
2019,09,28,03,37,6.40
2019,09,28,03,38,9.60
2019,09,28,03,39,6.40
2019,09,28,03,40,9.60
2019,09,28,03,41,6.40
2019,09,28,03,42,4.80
2019,09,28,03,43,3.20
2019,09,28,03,44,3.20
2019,09,28,03,45,1.60
2019,09,28,03,46,3.20
2019,09,28,03,47,3.20
2019,09,28,03,48,1.60
2019,09,28,03,51,1.60
2019,09,28,03,52,1.60
2019,09,28,03,53,1.60
2019,09,28,03,54,3.20
2019,09,28,03,55,4.80
2019,09,28,03,56,4.80
2019,09,28,03,57,4.80
2019,09,28,03,58,6.40
2019,09,28,03,59,6.40
2019,09,28,04,00,6.40
2019,09,28,04,01,6.40
2019,09,28,04,02,6.40
2019,09,28,04,03,6.40
2019,09,28,04,04,6.40
2019,09,28,04,05,6.40
2019,09,28,04,06,6.40
2019,09,28,04,07,6.40
2019,09,28,04,08,3.20
2019,09,28,04,09,3.20
2019,09,28,04,10,4.80
2019,09,28,04,11,4.80
2019,09,28,04,12,3.20
2019,09,28,04,13,4.80
2019,09,28,04,14,4.80
2019,09,28,04,15,4.80
2019,09,28,04,16,6.40
2019,09,28,04,17,4.80
2019,09,28,04,18,3.20
2019,09,28,04,19,3.20
2019,09,28,04,21,3.20
2019,09,28,04,22,3.20
2019,09,28,04,23,1.60
2019,09,28,04,24,3.20
2019,09,28,04,25,1.60
2019,09,28,04,28,4.80
2019,09,28,04,29,4.80
2019,09,28,04,30,3.20
2019,09,28,04,31,1.60
2019,09,28,04,32,3.20
2019,09,28,04,33,3.20
2019,09,28,04,34,4.80
2019,09,28,04,35,6.40
2019,09,28,04,36,4.80
2019,09,28,04,37,4.80
2019,09,28,04,38,4.80
2019,09,28,04,39,4.80
2019,09,28,04,40,3.20
2019,09,28,04,41,4.80
2019,09,28,04,42,4.80
2019,09,28,04,43,4.80
2019,09,28,04,44,4.80
2019,09,28,04,45,4.80
2019,09,28,04,46,4.80
2019,09,28,04,47,4.80
2019,09,28,04,48,4.80
2019,09,28,04,49,4.80
2019,09,28,04,50,4.80
2019,09,28,04,51,4.80
2019,09,28,04,52,4.80
2019,09,28,08,50,1.60
2019,09,28,08,51,1.60
2019,09,28,08,53,1.60
2019,09,28,08,59,1.60
2019,09,28,09,00,4.80
2019,09,28,09,01,3.20
2019,09,28,09,02,1.60
2019,09,28,09,03,1.60
2019,09,28,09,04,3.20
2019,09,28,09,05,6.40
2019,09,28,09,06,6.40
2019,09,28,09,07,4.80
2019,09,28,09,08,4.80
2019,09,28,09,09,3.20
2019,09,28,09,10,4.80
2019,09,28,09,11,4.80
2019,09,28,09,12,4.80
2019,09,28,09,13,3.20
2019,09,28,09,14,4.80
2019,09,28,09,15,4.80
2019,09,28,09,16,6.40
2019,09,28,09,17,4.80
2019,09,28,09,18,4.80
2019,09,28,09,19,6.40
2019,09,28,09,20,3.20
2019,09,28,09,21,3.20
2019,09,28,09,22,4.80
2019,09,28,09,23,3.20
2019,09,28,09,24,3.20
2019,09,28,09,25,3.20
2019,09,28,09,26,4.80
2019,09,28,09,27,4.80
2019,09,28,09,28,4.80
2019,09,28,09,29,4.80
2019,09,28,09,30,3.20
2019,09,28,09,32,1.60
2019,09,28,09,33,3.20
2019,09,28,09,34,3.20
2019,09,28,09,35,4.80
2019,09,28,09,36,3.20
2019,09,28,09,42,1.60
2019,09,28,09,43,1.60
2019,09,28,09,47,6.40
2019,09,28,09,54,1.60
2019,09,28,09,55,1.60
2019,09,28,09,59,1.60
2019,09,28,10,00,1.60
2019,09,28,10,01,1.60
2019,09,28,10,12,1.60
2019,09,28,10,13,6.40
2019,09,28,10,14,3.20
2019,09,28,10,15,6.40
2019,09,28,10,16,8.10
2019,09,28,10,17,12.90
2019,09,28,10,18,16.10
2019,09,28,10,19,12.90
2019,09,28,10,20,11.30
2019,09,28,10,21,8.10
2019,09,28,10,22,8.10
2019,09,28,10,23,8.10
2019,09,28,10,24,12.90
2019,09,28,10,25,14.50
2019,09,28,10,26,9.60
2019,09,28,10,27,12.90
2019,09,28,10,28,9.60
2019,09,28,10,29,8.10
2019,09,28,10,30,12.90
2019,09,28,10,31,12.90
2019,09,28,10,32,11.30
2019,09,28,10,33,6.40
2019,09,28,10,34,12.90
2019,09,28,10,35,12.90
2019,09,28,10,36,8.10
2019,09,28,10,37,8.10
2019,09,28,10,38,14.50
2019,09,28,10,39,17.70
2019,09,28,10,40,17.70
2019,09,28,10,41,17.70
2019,09,28,10,42,12.90
2019,09,28,10,43,8.10
2019,09,28,10,44,14.50
2019,09,28,10,45,14.50
2019,09,28,10,46,6.40
2019,09,28,10,47,6.40
2019,09,28,10,48,8.10
2019,09,28,10,49,12.90
2019,09,28,10,50,12.90
2019,09,28,10,51,14.50
2019,09,28,10,52,16.10
2019,09,28,10,53,16.10
2019,09,28,10,54,14.50
2019,09,28,10,55,14.50
2019,09,28,10,56,14.50
2019,09,28,10,57,19.30
2019,09,28,10,58,20.90
2019,09,28,10,59,14.50
2019,09,28,11,00,14.50
2019,09,28,11,01,8.10
2019,09,28,11,02,12.90
2019,09,28,11,03,8.10
2019,09,28,11,04,9.60
2019,09,28,11,05,12.90
2019,09,28,11,06,14.50
2019,09,28,11,07,17.70
2019,09,28,11,08,9.60
2019,09,28,11,09,12.90
2019,09,28,11,10,3.20
2019,09,28,11,11,16.10
2019,09,28,11,12,17.70
2019,09,28,11,13,17.70
2019,09,28,11,14,22.50
2019,09,28,11,15,16.10
2019,09,28,11,16,19.30
2019,09,28,11,17,16.10
2019,09,28,11,18,12.90
2019,09,28,11,19,17.70
2019,09,28,11,20,16.10
2019,09,28,11,21,20.90
2019,09,28,11,22,27.40
2019,09,28,11,23,25.70
2019,09,28,11,24,20.90
2019,09,28,11,25,17.70
2019,09,28,11,26,20.90
2019,09,28,11,27,25.70
2019,09,28,11,28,20.90
2019,09,28,11,29,19.30
2019,09,28,11,30,22.50
2019,09,28,11,31,22.50
2019,09,28,11,32,17.70
2019,09,28,11,33,27.40
2019,09,28,11,34,20.90
2019,09,28,11,35,16.10
2019,09,28,11,36,16.10
2019,09,28,11,37,20.90
2019,09,28,11,38,17.70
2019,09,28,11,39,11.30
2019,09,28,11,40,8.10
2019,09,28,11,41,17.70
2019,09,28,11,42,24.20
2019,09,28,11,43,20.90
2019,09,28,11,44,20.90
2019,09,28,11,45,27.40
2019,09,28,11,46,25.70
2019,09,28,11,47,25.70
2019,09,28,11,48,29.00
2019,09,28,11,49,25.70
2019,09,28,11,50,25.70
2019,09,28,11,51,22.50
2019,09,28,11,52,24.20
2019,09,28,11,53,20.90
2019,09,28,11,54,24.20
2019,09,28,11,55,20.90
2019,09,28,11,56,25.70
2019,09,28,11,57,22.50
2019,09,28,11,58,17.70
2019,09,28,11,59,20.90
2019,09,28,12,00,22.50
2019,09,28,12,01,22.50
2019,09,28,12,02,16.10
2019,09,28,12,03,16.10
2019,09,28,12,04,19.30
2019,09,28,12,05,17.70
2019,09,28,12,06,24.20
2019,09,28,12,07,25.70
2019,09,28,12,08,22.50
2019,09,28,12,09,24.20
2019,09,28,12,10,30.60
2019,09,28,12,11,17.70
2019,09,28,12,12,27.40
2019,09,28,12,13,27.40
2019,09,28,12,14,19.30
2019,09,28,12,15,19.30
2019,09,28,12,16,12.90
2019,09,28,12,17,17.70
2019,09,28,12,18,24.20
2019,09,28,12,19,22.50
2019,09,28,12,20,25.70
2019,09,28,12,21,16.10
2019,09,28,12,22,20.90
2019,09,28,12,23,17.70
2019,09,28,12,24,24.20
2019,09,28,12,25,20.90
2019,09,28,12,26,24.20
2019,09,28,12,27,20.90
2019,09,28,12,28,25.70
2019,09,28,12,29,30.60
2019,09,28,12,30,27.40
2019,09,28,12,31,24.20
2019,09,28,12,32,22.50
2019,09,28,12,33,17.70
2019,09,28,12,34,17.70
2019,09,28,12,35,20.90
2019,09,28,12,36,22.50
2019,09,28,12,37,20.90
2019,09,28,12,38,17.70
2019,09,28,12,39,20.90
2019,09,28,12,40,27.40
2019,09,28,12,41,16.10
2019,09,28,12,42,29.00
2019,09,28,12,43,29.00
2019,09,28,12,44,22.50
2019,09,28,12,45,19.30
2019,09,28,12,46,16.10
2019,09,28,12,47,22.50
2019,09,28,12,48,29.00
2019,09,28,12,49,29.00
2019,09,28,12,50,20.90
2019,09,28,12,51,29.00
2019,09,28,12,52,24.20
2019,09,28,12,53,25.70
2019,09,28,12,54,25.70
2019,09,28,12,55,20.90
2019,09,28,12,56,22.50
2019,09,28,12,57,12.90
2019,09,28,12,58,9.60
2019,09,28,12,59,29.00
2019,09,28,13,00,22.50
2019,09,28,13,01,17.70
2019,09,28,13,02,19.30
2019,09,28,13,03,29.00
2019,09,28,13,04,27.40
2019,09,28,13,05,24.20
2019,09,28,13,06,17.70
2019,09,28,13,07,17.70
2019,09,28,13,08,14.50
2019,09,28,13,09,19.30
2019,09,28,13,10,27.40
2019,09,28,13,11,16.10
2019,09,28,13,12,16.10
2019,09,28,13,13,22.50
2019,09,28,13,14,22.50
2019,09,28,13,15,27.40
2019,09,28,13,16,14.50
2019,09,28,13,17,25.70
2019,09,28,13,18,22.50
2019,09,28,13,19,20.90
2019,09,28,13,20,17.70
2019,09,28,13,21,25.70
2019,09,28,13,22,32.20
2019,09,28,13,23,27.40
2019,09,28,13,24,25.70
2019,09,28,13,25,24.20
2019,09,28,13,26,20.90
2019,09,28,13,27,16.10
2019,09,28,13,28,20.90
2019,09,28,13,29,29.00
2019,09,28,13,30,24.20
2019,09,28,13,31,19.30
2019,09,28,13,32,19.30
2019,09,28,13,33,17.70
2019,09,28,13,34,19.30
2019,09,28,13,35,24.20
2019,09,28,13,36,22.50
2019,09,28,13,37,22.50
2019,09,28,13,38,25.70
2019,09,28,13,39,30.60
2019,09,28,13,40,22.50
2019,09,28,13,41,20.90
2019,09,28,13,42,22.50
2019,09,28,13,43,25.70
2019,09,28,13,44,24.20
2019,09,28,13,45,17.70
2019,09,28,13,46,25.70
2019,09,28,13,47,22.50
2019,09,28,13,48,29.00
2019,09,28,13,49,17.70
2019,09,28,13,50,17.70
2019,09,28,13,51,9.60
2019,09,28,13,52,12.90
2019,09,28,13,53,17.70
2019,09,28,13,54,16.10
2019,09,28,13,55,14.50
2019,09,28,13,56,22.50
2019,09,28,13,57,19.30
2019,09,28,13,58,16.10
2019,09,28,13,59,20.90
2019,09,28,14,00,20.90
2019,09,28,14,01,22.50
2019,09,28,14,02,20.90
2019,09,28,14,03,19.30
2019,09,28,14,04,17.70
2019,09,28,14,05,16.10
2019,09,28,14,06,11.30
2019,09,28,14,07,25.70
2019,09,28,14,08,17.70
2019,09,28,14,09,19.30
2019,09,28,14,10,16.10
2019,09,28,14,11,24.20
2019,09,28,14,12,20.90
2019,09,28,14,13,17.70
2019,09,28,14,14,14.50
2019,09,28,14,15,14.50
2019,09,28,14,16,16.10
2019,09,28,14,17,14.50
2019,09,28,14,18,24.20
2019,09,28,14,19,27.40
2019,09,28,14,20,16.10
2019,09,28,14,21,24.20
2019,09,28,14,22,19.30
2019,09,28,14,23,17.70
2019,09,28,14,24,14.50
2019,09,28,14,25,19.30
2019,09,28,14,26,16.10
2019,09,28,14,27,16.10
2019,09,28,14,28,16.10
2019,09,28,14,29,11.30
2019,09,28,14,30,14.50
2019,09,28,14,31,12.90
2019,09,28,14,32,19.30
2019,09,28,14,33,16.10
2019,09,28,14,34,24.20
2019,09,28,14,35,17.70
2019,09,28,14,36,12.90
2019,09,28,14,37,14.50
2019,09,28,14,38,16.10
2019,09,28,14,39,14.50
2019,09,28,14,40,16.10
2019,09,28,14,41,17.70
2019,09,28,14,42,17.70
2019,09,28,14,43,20.90
2019,09,28,14,44,20.90
2019,09,28,14,45,17.70
2019,09,28,14,46,14.50
2019,09,28,14,47,11.30
2019,09,28,14,48,12.90
2019,09,28,14,49,16.10
2019,09,28,14,50,22.50
2019,09,28,14,51,25.70
2019,09,28,14,52,19.30
2019,09,28,14,53,17.70
2019,09,28,14,54,16.10
2019,09,28,14,55,17.70
2019,09,28,14,56,19.30
2019,09,28,14,57,20.90
2019,09,28,14,58,17.70
2019,09,28,14,59,17.70
2019,09,28,15,00,17.70
2019,09,28,15,01,17.70
2019,09,28,15,02,25.70
2019,09,28,15,03,16.10
2019,09,28,15,04,24.20
2019,09,28,15,05,20.90
2019,09,28,15,06,20.90
2019,09,28,15,07,24.20
2019,09,28,15,08,32.20
2019,09,28,15,09,22.50
2019,09,28,15,10,20.90
2019,09,28,15,11,25.70
2019,09,28,15,12,20.90
2019,09,28,15,13,20.90
2019,09,28,15,14,20.90
2019,09,28,15,15,17.70
2019,09,28,15,16,16.10
2019,09,28,15,17,14.50
2019,09,28,15,18,14.50
2019,09,28,15,19,19.30
2019,09,28,15,20,17.70
2019,09,28,15,21,16.10
2019,09,28,15,22,22.50
2019,09,28,15,23,17.70
2019,09,28,15,24,14.50
2019,09,28,15,25,20.90
2019,09,28,15,26,14.50
2019,09,28,15,27,17.70
2019,09,28,15,28,20.90
2019,09,28,15,29,19.30
2019,09,28,15,30,20.90
2019,09,28,15,31,22.50
2019,09,28,15,32,19.30
2019,09,28,15,33,12.90
2019,09,28,15,34,25.70
2019,09,28,15,35,22.50
2019,09,28,15,36,19.30
2019,09,28,15,37,19.30
2019,09,28,15,38,17.70
2019,09,28,15,39,14.50
2019,09,28,15,40,25.70
2019,09,28,15,41,24.20
2019,09,28,15,42,22.50
2019,09,28,15,43,22.50
2019,09,28,15,44,16.10
2019,09,28,15,45,14.50
2019,09,28,15,46,22.50
2019,09,28,15,47,20.90
2019,09,28,15,48,24.20
2019,09,28,15,49,27.40
2019,09,28,15,50,22.50
2019,09,28,15,51,19.30
2019,09,28,15,52,24.20
2019,09,28,15,53,22.50
2019,09,28,15,54,24.20
2019,09,28,15,55,22.50
2019,09,28,15,56,19.30
2019,09,28,15,57,22.50
2019,09,28,15,58,22.50
2019,09,28,15,59,25.70
2019,09,28,16,00,24.20
2019,09,28,16,01,27.40
2019,09,28,16,02,25.70
2019,09,28,16,03,24.20
2019,09,28,16,04,20.90
2019,09,28,16,05,22.50
2019,09,28,16,06,20.90
2019,09,28,16,07,27.40
2019,09,28,16,08,30.60
2019,09,28,16,09,25.70
2019,09,28,16,10,20.90
2019,09,28,16,11,29.00
2019,09,28,16,12,24.20
2019,09,28,16,13,22.50
2019,09,28,16,14,22.50
2019,09,28,16,15,20.90
2019,09,28,16,16,29.00
2019,09,28,16,17,25.70
2019,09,28,16,18,22.50
2019,09,28,16,19,29.00
2019,09,28,16,20,24.20
2019,09,28,16,21,27.40
2019,09,28,16,22,20.90
2019,09,28,16,23,25.70
2019,09,28,16,24,22.50
2019,09,28,16,25,24.20
2019,09,28,16,26,19.30
2019,09,28,16,27,19.30
2019,09,28,16,28,20.90
2019,09,28,16,29,25.70
2019,09,28,16,30,32.20
2019,09,28,16,31,30.60
2019,09,28,16,32,29.00
2019,09,28,16,33,25.70
2019,09,28,16,34,20.90
2019,09,28,16,35,20.90
2019,09,28,16,36,16.10
2019,09,28,16,37,19.30
2019,09,28,16,38,22.50
2019,09,28,16,39,22.50
2019,09,28,16,40,19.30
2019,09,28,16,41,22.50
2019,09,28,16,42,20.90
2019,09,28,16,43,17.70
2019,09,28,16,44,19.30
2019,09,28,16,45,17.70
2019,09,28,16,46,24.20
2019,09,28,16,47,22.50
2019,09,28,16,48,14.50
2019,09,28,16,49,16.10
2019,09,28,16,50,19.30
2019,09,28,16,51,17.70
2019,09,28,16,52,20.90
2019,09,28,16,53,16.10
2019,09,28,16,54,14.50
2019,09,28,16,55,19.30
2019,09,28,16,56,17.70
2019,09,28,16,57,20.90
2019,09,28,16,58,24.20
2019,09,28,16,59,22.50
2019,09,28,17,00,19.30
2019,09,28,17,01,19.30
2019,09,28,17,02,17.70
2019,09,28,17,03,20.90
2019,09,28,17,04,22.50
2019,09,28,17,05,20.90
2019,09,28,17,06,17.70
2019,09,28,17,07,17.70
2019,09,28,17,08,14.50
2019,09,28,17,09,19.30
2019,09,28,17,10,16.10
2019,09,28,17,11,17.70
2019,09,28,17,12,24.20
2019,09,28,17,13,24.20
2019,09,28,17,14,20.90
2019,09,28,17,15,20.90
2019,09,28,17,16,24.20
2019,09,28,17,17,20.90
2019,09,28,17,18,17.70
2019,09,28,17,19,16.10
2019,09,28,17,20,27.40
2019,09,28,17,21,14.50
2019,09,28,17,22,17.70
2019,09,28,17,23,20.90
2019,09,28,17,24,29.00
2019,09,28,17,25,20.90
2019,09,28,17,26,16.10
2019,09,28,17,27,19.30
2019,09,28,17,28,19.30
2019,09,28,17,29,24.20
2019,09,28,17,30,24.20
2019,09,28,17,31,19.30
2019,09,28,17,32,20.90
2019,09,28,17,33,16.10
2019,09,28,17,34,12.90
2019,09,28,17,35,24.20
2019,09,28,17,36,25.70
2019,09,28,17,37,20.90
2019,09,28,17,38,22.50
2019,09,28,17,39,22.50
2019,09,28,17,40,22.50
2019,09,28,17,41,17.70
2019,09,28,17,42,20.90
2019,09,28,17,43,22.50
2019,09,28,17,44,19.30
2019,09,28,17,45,16.10
2019,09,28,17,46,19.30
2019,09,28,17,47,12.90
2019,09,28,17,48,24.20
2019,09,28,17,49,11.30
2019,09,28,17,50,14.50
2019,09,28,17,51,14.50
2019,09,28,17,52,17.70
2019,09,28,17,53,25.70
2019,09,28,17,54,16.10
2019,09,28,17,55,19.30
2019,09,28,17,56,20.90
2019,09,28,17,57,17.70
2019,09,28,17,58,14.50
2019,09,28,17,59,16.10
2019,09,28,18,00,14.50
2019,09,28,18,01,17.70
2019,09,28,18,02,16.10
2019,09,28,18,03,12.90
2019,09,28,18,04,17.70
2019,09,28,18,05,19.30
2019,09,28,18,06,19.30
2019,09,28,18,07,20.90
2019,09,28,18,08,22.50
2019,09,28,18,09,17.70
2019,09,28,18,10,24.20
2019,09,28,18,11,24.20
2019,09,28,18,12,19.30
2019,09,28,18,13,22.50
2019,09,28,18,14,19.30
2019,09,28,18,15,16.10
2019,09,28,18,16,20.90
2019,09,28,18,17,22.50
2019,09,28,18,18,27.40
2019,09,28,18,19,20.90
2019,09,28,18,20,17.70
2019,09,28,18,21,16.10
2019,09,28,18,22,25.70
2019,09,28,18,23,22.50
2019,09,28,18,24,22.50
2019,09,28,18,25,24.20
2019,09,28,18,26,24.20
2019,09,28,18,27,20.90
2019,09,28,18,28,24.20
2019,09,28,18,29,25.70
2019,09,28,18,30,19.30
2019,09,28,18,31,27.40
2019,09,28,18,32,22.50
2019,09,28,18,33,19.30
2019,09,28,18,34,17.70
2019,09,28,18,35,17.70
2019,09,28,18,36,17.70
2019,09,28,18,37,16.10
2019,09,28,18,38,20.90
2019,09,28,18,39,14.50
2019,09,28,18,40,16.10
2019,09,28,18,41,12.90
2019,09,28,18,42,19.30
2019,09,28,18,43,22.50
2019,09,28,18,44,20.90
2019,09,28,18,45,17.70
2019,09,28,18,46,16.10
2019,09,28,18,47,16.10
2019,09,28,18,48,17.70
2019,09,28,18,49,14.50
2019,09,28,18,50,12.90
2019,09,28,18,51,14.50
2019,09,28,18,52,16.10
2019,09,28,18,53,14.50
2019,09,28,18,54,12.90
2019,09,28,18,55,12.90
2019,09,28,18,56,14.50
2019,09,28,18,57,16.10
2019,09,28,18,58,16.10
2019,09,28,18,59,16.10
2019,09,28,19,00,14.50
2019,09,28,19,01,14.50
2019,09,28,19,02,12.90
2019,09,28,19,03,12.90
2019,09,28,19,04,9.60
2019,09,28,19,05,9.60
2019,09,28,19,06,12.90
2019,09,28,19,07,17.70
2019,09,28,19,08,14.50
2019,09,28,19,09,14.50
2019,09,28,19,10,12.90
2019,09,28,19,11,11.30
2019,09,28,19,12,9.60
2019,09,28,19,13,9.60
2019,09,28,19,14,12.90
2019,09,28,19,15,9.60
2019,09,28,19,16,9.60
2019,09,28,19,17,12.90
2019,09,28,19,18,12.90
2019,09,28,19,19,12.90
2019,09,28,19,20,6.40
2019,09,28,19,21,9.60
2019,09,28,19,22,12.90
2019,09,28,19,23,6.40
2019,09,28,19,24,12.90
2019,09,28,19,25,11.30
2019,09,28,19,26,9.60
2019,09,28,19,27,14.50
2019,09,28,19,28,17.70
2019,09,28,19,29,16.10
2019,09,28,19,30,12.90
2019,09,28,19,31,17.70
2019,09,28,19,32,14.50
2019,09,28,19,33,17.70
2019,09,28,19,34,16.10
2019,09,28,19,35,19.30
2019,09,28,19,36,12.90
2019,09,28,19,37,6.40
2019,09,28,19,38,8.10
2019,09,28,19,39,12.90
2019,09,28,19,40,16.10
2019,09,28,19,41,8.10
2019,09,28,19,42,8.10
2019,09,28,19,43,6.40
2019,09,28,19,44,8.10
2019,09,28,19,45,11.30
2019,09,28,19,46,12.90
2019,09,28,19,47,12.90
2019,09,28,19,48,8.10
2019,09,28,19,49,8.10
2019,09,28,19,50,6.40
2019,09,28,19,51,6.40
2019,09,28,19,52,11.30
2019,09,28,19,53,11.30
2019,09,28,19,54,6.40
2019,09,28,19,55,6.40
2019,09,28,19,56,8.10
2019,09,28,19,57,6.40
2019,09,28,19,58,8.10
2019,09,28,19,59,6.40
2019,09,28,20,00,6.40
2019,09,28,20,01,6.40
2019,09,28,20,02,4.80
2019,09,28,20,03,9.60
2019,09,28,20,04,9.60
2019,09,28,20,05,6.40
2019,09,28,20,06,6.40
2019,09,28,20,07,6.40
2019,09,28,20,08,6.40
2019,09,28,20,09,4.80
2019,09,28,20,10,4.80
2019,09,28,20,11,4.80
2019,09,28,20,12,4.80
2019,09,28,20,13,4.80
2019,09,28,20,14,6.40
2019,09,28,20,15,4.80
2019,09,28,20,16,4.80
2019,09,28,20,17,6.40
2019,09,28,20,18,4.80
2019,09,28,20,19,3.20
2019,09,28,20,20,3.20
2019,09,28,20,21,6.40
2019,09,28,20,22,6.40
2019,09,28,20,23,3.20
2019,09,28,20,24,3.20
2019,09,28,20,25,3.20
2019,09,28,20,26,4.80
2019,09,28,20,27,4.80
2019,09,28,20,28,3.20
2019,09,28,20,29,4.80
2019,09,28,20,30,3.20
2019,09,28,20,31,4.80
2019,09,28,20,32,4.80
2019,09,28,20,33,6.40
2019,09,28,20,34,6.40
2019,09,28,20,35,6.40
2019,09,28,20,36,4.80
2019,09,28,20,37,8.10
2019,09,28,20,38,6.40
2019,09,28,20,39,6.40
2019,09,28,20,40,4.80
2019,09,28,20,41,6.40
2019,09,28,20,42,14.50
2019,09,28,20,43,12.90
2019,09,28,20,44,11.30
2019,09,28,20,45,6.40
2019,09,28,20,46,6.40
2019,09,28,20,47,6.40
2019,09,28,20,48,9.60
2019,09,28,20,49,9.60
2019,09,28,20,50,6.40
2019,09,28,20,51,6.40
2019,09,28,20,52,6.40
2019,09,28,20,53,4.80
2019,09,28,20,54,3.20
2019,09,28,20,55,4.80
2019,09,28,20,56,3.20
2019,09,28,20,57,4.80
2019,09,28,20,58,8.10
2019,09,28,20,59,6.40
2019,09,28,21,00,4.80
2019,09,28,21,01,4.80
2019,09,28,21,02,4.80
2019,09,28,21,03,3.20
2019,09,28,21,04,1.60
2019,09,28,21,05,3.20
2019,09,28,21,07,1.60
2019,09,28,21,08,3.20
2019,09,28,21,09,4.80
2019,09,28,21,10,4.80
2019,09,28,21,11,4.80
2019,09,28,21,12,4.80
2019,09,28,21,13,6.40
2019,09,28,21,14,6.40
2019,09,28,21,15,4.80
2019,09,28,21,16,6.40
2019,09,28,21,17,8.10
2019,09,28,21,18,8.10
2019,09,28,21,19,9.60
2019,09,28,21,20,6.40
2019,09,28,21,21,6.40
2019,09,28,21,22,8.10
2019,09,28,21,23,6.40
2019,09,28,21,24,6.40
2019,09,28,21,25,6.40
2019,09,28,21,26,4.80
2019,09,28,21,27,8.10
2019,09,28,21,28,6.40
2019,09,28,21,29,4.80
2019,09,28,21,30,4.80
2019,09,28,21,31,4.80
2019,09,28,21,32,6.40
2019,09,28,21,33,8.10
2019,09,28,21,34,6.40
2019,09,28,21,35,6.40
2019,09,28,21,36,6.40
2019,09,28,21,37,6.40
2019,09,28,21,38,6.40
2019,09,28,21,39,6.40
2019,09,28,21,40,8.10
2019,09,28,21,41,8.10
2019,09,28,21,42,8.10
2019,09,28,21,43,6.40
2019,09,28,21,44,4.80
2019,09,28,21,45,3.20
2019,09,28,21,46,4.80
2019,09,28,21,47,3.20
2019,09,28,21,50,3.20
2019,09,28,21,51,3.20
2019,09,28,21,52,3.20
2019,09,28,21,53,3.20
2019,09,28,21,54,3.20
2019,09,28,21,55,3.20
2019,09,28,21,56,3.20
2019,09,28,21,57,6.40
2019,09,28,21,58,6.40
2019,09,28,21,59,6.40
2019,09,28,22,00,4.80
2019,09,28,22,01,4.80
2019,09,28,22,02,3.20
2019,09,28,22,03,3.20
2019,09,28,22,04,3.20
2019,09,28,22,05,3.20
2019,09,28,22,06,3.20
2019,09,28,22,07,4.80
2019,09,28,22,08,4.80
2019,09,28,22,09,6.40
2019,09,28,22,10,4.80
2019,09,28,22,11,4.80
2019,09,28,22,12,3.20
2019,09,28,22,13,3.20
2019,09,28,22,14,3.20
2019,09,28,22,15,3.20
2019,09,28,22,16,4.80
2019,09,28,22,17,4.80
2019,09,28,22,18,4.80
2019,09,28,22,19,3.20
2019,09,28,22,20,3.20
2019,09,28,22,21,3.20
2019,09,28,22,22,4.80
2019,09,28,22,23,6.40
2019,09,28,22,24,4.80
2019,09,28,22,25,4.80
2019,09,28,22,26,4.80
2019,09,28,22,27,4.80
2019,09,28,22,28,4.80
2019,09,28,22,29,4.80
2019,09,28,22,30,3.20
2019,09,28,22,31,3.20
2019,09,28,22,32,4.80
2019,09,28,22,33,4.80
2019,09,28,22,34,6.40
2019,09,28,22,35,6.40
2019,09,28,22,36,4.80
2019,09,28,22,37,6.40
2019,09,28,22,38,8.10
2019,09,28,22,39,8.10
2019,09,28,22,40,8.10
2019,09,28,22,41,8.10
2019,09,28,22,42,9.60
2019,09,28,22,43,6.40
2019,09,28,22,44,6.40
2019,09,28,22,45,6.40
2019,09,28,22,46,4.80
2019,09,28,22,47,4.80
2019,09,28,22,48,6.40
2019,09,28,22,49,4.80
2019,09,28,22,50,4.80
2019,09,28,22,51,3.20
2019,09,28,22,52,4.80
2019,09,28,22,53,3.20
2019,09,28,22,54,1.60
2019,09,28,22,55,3.20
2019,09,28,22,56,3.20
2019,09,28,22,57,3.20
2019,09,28,22,58,4.80
2019,09,28,22,59,4.80
2019,09,28,23,00,3.20
2019,09,28,23,01,3.20
2019,09,28,23,02,6.40
2019,09,28,23,03,3.20